Tracking 19475 objects as of 18-Jan-2019
HD Live streaming from Space Station
objects crossing your sky now

GLOBALSTAR M054

Track GLOBALSTAR M054 now!
10-day predictions
GLOBALSTAR M054 is classified as:


NORAD ID: 25885
Int'l Code: 1999-043C
Perigee: 1,968.5 km
Apogee: 1,976.3 km
Inclination: 52.0 °
Period: 126.4 minutes
Semi major axis: 8343 km
RCS: 2.4739 m2 (large)
Launch date: August 17, 1999
Source: Globalstar (GLOB)
Launch site: AIR FORCE EASTERN TEST RANGE (AFETR)
aabbcc
Your satellite tracking list
Your tracking list is empty




NASA's NSSDC Master Catalog

Two Line Element Set (TLE):
1 25885U 99043C   19018.23810014 -.00000073  00000-0 -47313-4 0  9995
2 25885  52.0154  76.5839 0004633  87.0528 345.0865 11.39169650852479
Source of the keplerian elements: AFSPC